VLG9NM LEBL-LESO

Flight info

Callsign VLG9NM
Flight time 0h 47m
Altitude 29000
Route GRAUS M601 PPN N10 SSN
Aircraft A319/M-SDE3FGHIRWY/LB1

Departure

Time 2026-05-08 10:09
Airport Josep Tarradellas Barcelona-El Prat Airport (LEBL)

Arrival

Time 2026-05-08 10:56
Airport San Sebastián Airport (LESO)
Time Latitude Longitude Altitude Speed Heading
2026-05-08 09:50 41.29116 2.07845 19 ft 0 kts 155°
2026-05-08 09:58 41.29117 2.07844 19 ft 2 kts 155°
2026-05-08 09:58 41.29140 2.07831 19 ft 4 kts 155°
2026-05-08 09:58 41.29164 2.07816 20 ft 4 kts 156°
2026-05-08 09:58 41.29187 2.07811 19 ft 4 kts 210°
2026-05-08 09:59 41.29200 2.07829 19 ft 3 kts 245°
2026-05-08 09:59 41.29211 2.07861 19 ft 4 kts 245°
2026-05-08 09:59 41.29213 2.07867 19 ft 0 kts 245°
2026-05-08 10:01 41.29209 2.07857 19 ft 2 kts 245°
2026-05-08 10:01 41.29211 2.07822 19 ft 6 kts 302°
2026-05-08 10:02 41.29263 2.07787 21 ft 11 kts 335°
2026-05-08 10:02 41.29339 2.07740 19 ft 14 kts 335°
2026-05-08 10:02 41.29415 2.07769 17 ft 13 kts 63°
2026-05-08 10:02 41.29452 2.07881 15 ft 14 kts 65°
2026-05-08 10:03 41.29493 2.08000 18 ft 15 kts 65°
2026-05-08 10:03 41.29536 2.08125 15 ft 15 kts 65°
2026-05-08 10:03 41.29566 2.08265 16 ft 16 kts 91°
2026-05-08 10:03 41.29602 2.08398 17 ft 16 kts 65°
2026-05-08 10:04 41.29620 2.08511 17 ft 11 kts 118°
2026-05-08 10:04 41.29551 2.08559 17 ft 12 kts 156°
2026-05-08 10:04 41.29464 2.08611 15 ft 15 kts 156°
2026-05-08 10:04 41.29369 2.08667 18 ft 14 kts 155°
2026-05-08 10:05 41.29280 2.08722 18 ft 14 kts 155°
2026-05-08 10:05 41.29183 2.08781 17 ft 16 kts 155°
2026-05-08 10:05 41.29077 2.08844 17 ft 17 kts 156°
2026-05-08 10:05 41.28980 2.08902 17 ft 12 kts 156°
2026-05-08 10:06 41.28950 2.08986 18 ft 11 kts 75°
2026-05-08 10:06 41.28985 2.09088 17 ft 14 kts 65°
2026-05-08 10:06 41.29030 2.09218 17 ft 16 kts 66°
2026-05-08 10:06 41.29076 2.09354 18 ft 17 kts 65°
2026-05-08 10:07 41.29125 2.09498 17 ft 17 kts 65°
2026-05-08 10:07 41.29176 2.09648 18 ft 18 kts 65°
2026-05-08 10:07 41.29230 2.09805 18 ft 19 kts 65°
2026-05-08 10:07 41.29295 2.09960 19 ft 19 kts 57°
2026-05-08 10:08 41.29353 2.10127 17 ft 20 kts 65°
2026-05-08 10:08 41.29348 2.10256 16 ft 16 kts 143°
2026-05-08 10:08 41.29251 2.10311 14 ft 13 kts 174°
2026-05-08 10:08 41.29190 2.10236 16 ft 16 kts 245°
2026-05-08 10:09 41.29031 2.09774 22 ft 94 kts 245°
2026-05-08 10:09 41.28664 2.08702 29 ft 156 kts 245°
2026-05-08 10:09 41.28196 2.07416 658 ft 154 kts 235°
2026-05-08 10:09 41.27347 2.06570 1249 ft 158 kts 195°
2026-05-08 10:10 41.26292 2.06198 1905 ft 161 kts 192°
2026-05-08 10:10 41.25116 2.05842 2317 ft 185 kts 192°
2026-05-08 10:10 41.23786 2.05443 2624 ft 215 kts 191°
2026-05-08 10:10 41.22281 2.04979 3346 ft 222 kts 193°
2026-05-08 10:11 41.20792 2.04495 4354 ft 220 kts 193°
2026-05-08 10:11 41.19300 2.03995 5232 ft 223 kts 194°
2026-05-08 10:11 41.17814 2.03294 5922 ft 237 kts 214°
2026-05-08 10:11 41.16822 2.01527 6631 ft 249 kts 253°
2026-05-08 10:12 41.16863 1.99237 7480 ft 256 kts 290°
2026-05-08 10:12 41.17702 1.97147 8412 ft 258 kts 302°
2026-05-08 10:12 41.18720 1.95162 9328 ft 262 kts 305°
2026-05-08 10:12 41.19787 1.93176 10207 ft 265 kts 305°
2026-05-08 10:13 41.20854 1.91163 11096 ft 268 kts 304°
2026-05-08 10:13 41.21908 1.89116 11961 ft 270 kts 303°
2026-05-08 10:13 41.22984 1.87047 12809 ft 273 kts 308°
2026-05-08 10:13 41.24329 1.85165 13299 ft 292 kts 314°
2026-05-08 10:14 41.25829 1.83186 13591 ft 316 kts 314°
2026-05-08 10:14 41.27448 1.81055 13820 ft 339 kts 314°
2026-05-08 10:14 41.29155 1.78804 14366 ft 350 kts 314°
2026-05-08 10:14 41.30894 1.76501 15073 ft 355 kts 314°
2026-05-08 10:15 41.32652 1.74163 15801 ft 358 kts 314°
2026-05-08 10:15 41.34421 1.71806 16505 ft 362 kts 314°
2026-05-08 10:15 41.36212 1.69417 17206 ft 366 kts 314°
2026-05-08 10:15 41.38018 1.67012 17887 ft 369 kts 314°
2026-05-08 10:16 41.39836 1.64577 18543 ft 372 kts 312°
2026-05-08 10:16 41.41372 1.61799 19180 ft 374 kts 301°
2026-05-08 10:16 41.42291 1.59837 19620 ft 377 kts 300°
2026-05-08 10:16 41.43676 1.56863 20265 ft 380 kts 300°
2026-05-08 10:17 41.45073 1.53851 20881 ft 383 kts 300°
2026-05-08 10:17 41.46476 1.50817 21477 ft 386 kts 300°
2026-05-08 10:17 41.47892 1.47757 22080 ft 389 kts 300°
2026-05-08 10:17 41.49320 1.44667 22637 ft 393 kts 300°
2026-05-08 10:18 41.50756 1.41557 23174 ft 396 kts 300°
2026-05-08 10:18 41.52209 1.38405 23702 ft 399 kts 300°
2026-05-08 10:18 41.53670 1.35234 24205 ft 402 kts 300°
2026-05-08 10:18 41.55140 1.32038 24698 ft 405 kts 300°
2026-05-08 10:19 41.56623 1.28818 25178 ft 408 kts 300°
2026-05-08 10:19 41.58111 1.25584 25654 ft 411 kts 300°
2026-05-08 10:19 41.59612 1.22316 26109 ft 413 kts 300°
2026-05-08 10:20 41.62635 1.15723 26978 ft 418 kts 300°
2026-05-08 10:20 41.64157 1.12397 27403 ft 421 kts 300°
2026-05-08 10:20 41.65687 1.09047 27825 ft 423 kts 299°
2026-05-08 10:20 41.67225 1.05677 28233 ft 425 kts 299°
2026-05-08 10:21 41.68771 1.02285 28643 ft 428 kts 299°
2026-05-08 10:21 41.70319 0.98883 28967 ft 430 kts 299°
2026-05-08 10:21 41.71871 0.95470 29023 ft 422 kts 299°
2026-05-08 10:21 41.73351 0.92213 29035 ft 410 kts 299°
2026-05-08 10:22 41.74825 0.88965 29035 ft 406 kts 299°
2026-05-08 10:22 41.77746 0.82525 29035 ft 405 kts 299°
2026-05-08 10:23 41.80665 0.76065 29038 ft 405 kts 298°
2026-05-08 10:23 41.83582 0.69602 29027 ft 405 kts 298°
2026-05-08 10:24 41.86498 0.63128 29026 ft 406 kts 298°
2026-05-08 10:24 41.89410 0.56642 29023 ft 406 kts 298°
2026-05-08 10:25 41.92325 0.50145 29020 ft 406 kts 298°
2026-05-08 10:25 41.95236 0.43641 29019 ft 406 kts 298°
2026-05-08 10:26 41.98136 0.37118 29018 ft 406 kts 297°
2026-05-08 10:26 42.00780 0.30411 29017 ft 406 kts 294°
2026-05-08 10:27 42.03237 0.23627 29022 ft 406 kts 294°
2026-05-08 10:27 42.05723 0.16811 29025 ft 406 kts 294°
2026-05-08 10:28 42.08250 0.10018 29024 ft 406 kts 294°
2026-05-08 10:28 42.10787 0.03219 29028 ft 406 kts 294°
2026-05-08 10:29 42.13321 -0.03580 29025 ft 406 kts 294°
2026-05-08 10:29 42.15857 -0.10407 29011 ft 408 kts 295°
2026-05-08 10:30 42.18393 -0.17265 29003 ft 409 kts 294°
2026-05-08 10:30 42.20930 -0.24152 29005 ft 411 kts 295°
2026-05-08 10:31 42.23473 -0.31061 29005 ft 412 kts 295°
2026-05-08 10:31 42.26014 -0.37989 29014 ft 412 kts 294°
2026-05-08 10:32 42.28540 -0.44886 29021 ft 412 kts 294°
2026-05-08 10:32 42.31074 -0.51829 29020 ft 412 kts 294°
2026-05-08 10:33 42.33607 -0.58781 29015 ft 412 kts 294°
2026-05-08 10:33 42.36139 -0.65731 29017 ft 412 kts 294°
2026-05-08 10:34 42.38664 -0.72684 29015 ft 412 kts 294°
2026-05-08 10:34 42.41176 -0.79646 29011 ft 412 kts 294°
2026-05-08 10:35 42.43693 -0.86606 29001 ft 412 kts 294°
2026-05-08 10:35 42.46204 -0.93578 28994 ft 411 kts 294°
2026-05-08 10:36 42.48703 -1.00553 28986 ft 411 kts 294°
2026-05-08 10:36 42.51203 -1.07541 28984 ft 412 kts 294°
2026-05-08 10:37 42.53706 -1.14528 28980 ft 412 kts 294°
2026-05-08 10:37 42.56199 -1.21521 28976 ft 413 kts 294°
2026-05-08 10:37 42.57447 -1.25041 28978 ft 426 kts 294°
2026-05-08 10:38 42.58745 -1.28706 28973 ft 428 kts 294°
2026-05-08 10:38 42.60014 -1.32277 28884 ft 413 kts 294°
2026-05-08 10:38 42.61243 -1.35726 28757 ft 399 kts 294°
2026-05-08 10:38 42.62435 -1.39072 28571 ft 389 kts 294°
2026-05-08 10:39 42.63601 -1.42364 28249 ft 385 kts 294°
2026-05-08 10:39 42.64750 -1.45629 27867 ft 382 kts 294°
2026-05-08 10:39 42.65889 -1.48871 27434 ft 379 kts 294°
2026-05-08 10:39 42.67024 -1.52097 26995 ft 377 kts 294°
2026-05-08 10:40 42.68154 -1.55308 26568 ft 375 kts 294°
2026-05-08 10:40 42.69279 -1.58504 26126 ft 373 kts 294°
2026-05-08 10:40 42.70395 -1.61671 25563 ft 373 kts 294°
2026-05-08 10:40 42.71662 -1.64830 24542 ft 389 kts 303°
2026-05-08 10:41 42.73476 -1.67655 23517 ft 404 kts 317°
2026-05-08 10:41 42.75799 -1.69849 22745 ft 411 kts 332°
2026-05-08 10:41 42.78430 -1.71225 22191 ft 410 kts 346°
2026-05-08 10:41 42.81235 -1.71931 21538 ft 411 kts 350°
2026-05-08 10:42 42.84070 -1.72568 20769 ft 414 kts 350°
2026-05-08 10:42 42.86938 -1.73204 19936 ft 418 kts 351°
2026-05-08 10:42 42.89819 -1.73839 19107 ft 421 kts 351°
2026-05-08 10:42 42.92731 -1.74481 18269 ft 424 kts 351°
2026-05-08 10:43 42.95635 -1.75121 17446 ft 424 kts 351°
2026-05-08 10:43 42.98551 -1.75815 16600 ft 424 kts 346°
2026-05-08 10:43 43.01347 -1.77096 15793 ft 424 kts 339°
2026-05-08 10:43 43.04116 -1.78487 14965 ft 424 kts 339°
2026-05-08 10:44 43.06881 -1.79881 14227 ft 421 kts 339°
2026-05-08 10:44 43.09536 -1.81220 14064 ft 392 kts 339°
2026-05-08 10:44 43.11997 -1.82459 13954 ft 363 kts 339°
2026-05-08 10:44 43.14311 -1.83621 13811 ft 347 kts 339°
2026-05-08 10:45 43.16522 -1.84731 13585 ft 340 kts 339°
2026-05-08 10:45 43.18730 -1.85847 13327 ft 337 kts 339°
2026-05-08 10:45 43.20925 -1.86958 13072 ft 335 kts 339°
2026-05-08 10:45 43.23113 -1.88064 12825 ft 334 kts 339°
2026-05-08 10:46 43.25273 -1.89156 12479 ft 329 kts 339°
2026-05-08 10:46 43.27417 -1.90241 12026 ft 328 kts 339°
2026-05-08 10:46 43.29551 -1.91320 11581 ft 327 kts 339°
2026-05-08 10:46 43.31689 -1.92399 11125 ft 326 kts 339°
2026-05-08 10:47 43.33818 -1.93473 10657 ft 326 kts 339°
2026-05-08 10:47 43.35943 -1.94545 10206 ft 325 kts 340°
2026-05-08 10:47 43.38026 -1.95599 10058 ft 313 kts 340°
2026-05-08 10:47 43.40033 -1.96617 9870 ft 303 kts 340°
2026-05-08 10:48 43.42026 -1.97446 9604 ft 299 kts 352°
2026-05-08 10:48 43.44094 -1.97279 9130 ft 298 kts 17°
2026-05-08 10:48 43.45921 -1.96056 8662 ft 290 kts 39°
2026-05-08 10:48 43.47267 -1.94031 7878 ft 289 kts 60°
2026-05-08 10:49 43.48230 -1.91601 7118 ft 289 kts 63°
2026-05-08 10:49 43.49193 -1.89161 6265 ft 292 kts 63°
2026-05-08 10:49 43.50175 -1.86701 5410 ft 294 kts 62°
2026-05-08 10:49 43.51139 -1.84291 5133 ft 278 kts 62°
2026-05-08 10:50 43.52049 -1.82010 5000 ft 265 kts 62°
2026-05-08 10:50 43.52912 -1.79839 4872 ft 252 kts 63°
2026-05-08 10:50 43.53734 -1.77779 4757 ft 239 kts 62°
2026-05-08 10:50 43.54382 -1.75776 4619 ft 226 kts 79°
2026-05-08 10:51 43.54356 -1.73688 4507 ft 214 kts 106°
2026-05-08 10:51 43.53689 -1.71918 4367 ft 204 kts 129°
2026-05-08 10:51 43.52810 -1.70434 4259 ft 196 kts 129°
2026-05-08 10:51 43.51966 -1.68997 4139 ft 190 kts 129°
2026-05-08 10:52 43.51156 -1.67616 3987 ft 182 kts 129°
2026-05-08 10:52 43.50362 -1.66272 3741 ft 180 kts 130°
2026-05-08 10:52 43.49331 -1.65359 3477 ft 179 kts 164°
2026-05-08 10:52 43.48104 -1.65460 3220 ft 180 kts 200°
2026-05-08 10:53 43.47077 -1.66432 2987 ft 180 kts 217°
2026-05-08 10:53 43.46104 -1.67512 2723 ft 179 kts 217°
2026-05-08 10:53 43.45140 -1.68575 2476 ft 176 kts 217°
2026-05-08 10:53 43.44189 -1.69626 2223 ft 176 kts 217°
2026-05-08 10:54 43.43240 -1.70676 1966 ft 173 kts 217°
2026-05-08 10:54 43.42317 -1.71693 1712 ft 166 kts 217°
2026-05-08 10:54 43.41430 -1.72670 1467 ft 161 kts 217°
2026-05-08 10:54 43.40582 -1.73604 1259 ft 153 kts 218°
2026-05-08 10:55 43.39780 -1.74485 1006 ft 141 kts 218°
2026-05-08 10:55 43.39049 -1.75294 767 ft 134 kts 218°
2026-05-08 10:55 43.38335 -1.76096 544 ft 131 kts 218°
2026-05-08 10:55 43.37627 -1.76880 383 ft 130 kts 218°
2026-05-08 10:56 43.36919 -1.77656 229 ft 130 kts 218°
2026-05-08 10:56 43.36215 -1.78438 67 ft 130 kts 219°
2026-05-08 10:56 43.35570 -1.79147 18 ft 95 kts 218°
2026-05-08 10:56 43.35260 -1.79491 21 ft 37 kts 218°
2026-05-08 10:57 43.35105 -1.79664 21 ft 15 kts 221°
2026-05-08 10:57 43.35063 -1.79731 20 ft 8 kts 154°
2026-05-08 10:57 43.35153 -1.79603 20 ft 15 kts 37°
2026-05-08 10:58 43.35251 -1.79497 22 ft 21 kts 38°
2026-05-08 10:58 43.35382 -1.79354 20 ft 26 kts 39°
2026-05-08 10:58 43.35468 -1.79259 19 ft 8 kts 38°
2026-05-08 10:58 43.35506 -1.79231 20 ft 5 kts 358°
2026-05-08 10:59 43.35533 -1.79268 19 ft 6 kts 310°
2026-05-08 10:59 43.35564 -1.79304 17 ft 5 kts 351°
2026-05-08 10:59 43.35595 -1.79276 19 ft 4 kts 39°
2026-05-08 10:59 43.35599 -1.79272 18 ft 0 kts 38°